STARLINK-1554, 46055

Orbit data source: Space-Track

STARLINK-1554, 46055 is a payload satellite owned by SpaceX/Seattle (US) in LEO that was launched on Fri, 07 Aug 2020 UTC via an FALCON 9 launch vehicle from the Air Force Eastern Test Range (AFETR). Payload-class satellites include a variety of spacecraft equipped with specific instruments for various scientific and technological missions. These include communications satellites like Starlink; space stations such as the ISS; scientific satellites like the Hubble; Earth observation satellites from companies like Planet Labs, Umbra, and HawkEye 360; GPS; miniature CubeSats for education and research; and military/defense satellites.

Loading next visibility...
Identifier
46055, 2020-055AE
Orbit
LEO
Country
Flag of USUS
Related business
Manufacturer
SpaceX/Seattle
Mission
Operational Commercial Communications
Bus & Motor
STARLINK, Unknown motor
Mass
260 kg wet, ~248 kg dry
Launch date (UTC)
2020-08-07 (6 years ago)
Launch vehicle
FALCON 9
Launch site
Air Force Eastern Test Range (AFETR)
Object type
Payload
Rocket body
Debris
Shape & HBR
Box + 1 Pan, 10.1 m
Radar Cross Section
13.562 m², Large (>1 m²)

Expand to show TLE details & history
Last TLE update: 19 hours ago

TLE from 19 hours ago
0 STARLINK-1554
1 46055U 20055AE  26129.85668648  .00000476  00000-0  27119-4 0  9994
2 46055  53.1582 189.6160 0001261  97.2191 262.8953 15.31696685318441
Epoch: 2026-05-09T20:33Z
TLE epoch observation values (Epoch: 2026-05-09T20:33:37.711Z)
Latitude
-0.0001°
Longitude
13.54068°
Altitude
471.757 km
Speed
7.631 km/s
True Right ascension
12h 38m 27s
True Declination
0° 00' 00"
Sunlit
Object was in full shadow at epoch
Visualization orbit readout
Latitude
Unknown
Longitude
Unknown
Altitude
Unknown
Speed
Unknown
Apparent Right ascension
Unknown
Apparent Declination
Unknown
Sunlit
N/A
Visualization observer readout
Local Sidereal Time
23:57:48
Azimuth
Unknown
Elevation
Unknown
Doppler factor
Unknown
Orbital elements
Apogee altitude
471.87 km
Perigee altitude
470.143 km
Semi-major axis
6,849.144 km
Eccentricity
0.00013
Inclination
53.1582°
RAAN
189.616°
Arg. of periapsis
97.2191°
True anomaly
262.88096°
Mean anomaly
262.8953°
Eccentric anomaly
262.88813°
Mean motion
3.82903 °/min
Orbital period
94.02 mins
BSTAR
0.000027119
Loading maneuver chart data...
Computing Atmospheric mass density...

Documentation

Showing up to 5 results
|